This demonstration page uses our WeatherBlox Daily Observations layout. Learn more.

Left ArrowRight Arrow

38.80484, -77.04692

Hourly Observations for August 7, 2021

Temp ( °F °C ) Dew Point ( °F °C ) Humidity (%) Winds ( mph kmh ) Pressure ( in mb ) Visibility ( mi km ) Precip ( " mm )
12:52 am 00:52 Cloudy 75 23.9 65 18.3 71 71 SSW 6 9 30.12 1020 10 16 N/A
1:52 am 01:52 Cloudy 73 22.8 65 18.3 76 76 S 7 11 30.11 1020 10 16 N/A
2:52 am 02:52 Cloudy 73 22.8 65 18.3 76 76 S 8 13 30.10 1019 10 16 N/A
3:52 am 03:52 Cloudy 72 22.2 66 18.9 82 82 SSW 7 11 30.10 1019 10 16 N/A
4:52 am 04:52 Cloudy 70 21.1 66 18.9 87 87 SSE 3 6 30.09 1019 10 16 N/A
5:52 am 05:52 Cloudy 71 21.7 66 18.9 84 84 SSE 5 7 30.09 1019 10 16 N/A
6:52 am 06:52 Cloudy 72 22.2 68 20 87 87 S 3 6 30.10 1019 10 16 N/A
7:52 am 07:52 Mostly Cloudy 73 22.8 68 20 84 84 E 3 6 30.09 1019 10 16 N/A
8:52 am 08:52 Mostly Cloudy 77 25 68 20 74 74 N N/A 30.09 1019 10 16 N/A
9:52 am 09:52 Mostly Cloudy 77 25 68 20 74 74 S 6 9 30.09 1019 10 16 N/A
10:52 am 10:52 Cloudy 76 24.4 68 20 77 77 S 7 11 30.09 1019 10 16 N/A
11:25 am 11:25 Cloudy with Light Rain 76 24.4 69 20.6 79 79 S 9 15 30.10 1019 10 16 0.00 0.00
11:46 am 11:46 Cloudy with Light Rain 75 24 70 21 83 83 SW 12 19 30.10 1019 10 16 0.00 0.00
11:52 am 11:52 Cloudy with Light Rain 75 23.9 69 20.6 82 82 SW 9 15 30.09 1019 10 16 0.00 0.00
11:54 am 11:54 Cloudy with Light Rain 75 23.9 69 20.6 82 82 SSW 9 15 30.10 1019 10 16 0.00 0.00
11:57 am 11:57 Cloudy with Light Rain 75 23.9 69 20.6 82 82 SSW 9 15 30.09 1019 10 16 0.00 0.00
12:10 pm 12:10 Cloudy with Light Rain 74 23.3 69 20.6 85 85 SW 8 13 30.10 1019 10 16 0.01 0.25
12:52 pm 12:52 Cloudy with Rain 73 22.8 68 20 84 84 S 8 13 30.09 1019 8 13 0.08 2.03
12:57 pm 12:57 Cloudy with Rain 73 22.8 67 19.4 81 81 S 7 11 30.09 1019 7 11 0.01 0.25
1:52 pm 13:52 Cloudy with Light Rain 71 21.7 66 18.9 84 84 S 6 9 30.09 1019 10 16 0.10 2.54
2:17 pm 14:17 Cloudy with Rain 71 21.7 66 18.9 84 84 N N/A 30.10 1019 7 11 0.04 1.02
2:52 pm 14:52 Cloudy with Light Rain 70 21.1 61 16.1 73 73 E 8 13 30.09 1019 10 16 0.06 1.52
2:54 pm 14:54 Cloudy with Light Rain 70 21.1 61 16.1 73 73 ENE 8 13 30.09 1019 10 16 0.00 0.00
3:52 pm 15:52 Cloudy 71 21.7 64 17.8 79 79 E 5 7 30.07 1018 10 16 0.00 0.00
4:52 pm 16:52 Cloudy 72 22.2 65 18.3 79 79 ENE 6 9 30.04 1017 10 16 N/A
5:52 pm 17:52 Cloudy 73 22.8 66 18.9 79 79 ENE 8 13 30.02 1017 10 16 N/A
6:52 pm 18:52 Cloudy 72 22.2 65 18.3 79 79 N 5 7 30.04 1017 10 16 N/A
7:35 pm 19:35 Cloudy 73 22.8 64 17.8 74 74 N N/A 30.06 1018 10 16 N/A
7:52 pm 19:52 Cloudy 73 22.8 65 18.3 76 76 N N/A 30.05 1018 10 16 N/A
8:38 pm 20:38 Mostly Cloudy 71 21.7 65 18.3 81 81 NNE 6 9 30.03 1017 10 16 N/A
8:52 pm 20:52 Mostly Cloudy 71 21.7 65 18.3 81 81 NNE 6 9 30.02 1017 10 16 N/A
9:52 pm 21:52 Mostly Cloudy 72 22.2 65 18.3 79 79 NNE 7 11 30.02 1017 10 16 N/A
10:52 pm 22:52 Mostly Cloudy 71 21.7 65 18.3 81 81 N 10 17 30.03 1017 10 16 N/A
11:52 pm 23:52 Mostly Cloudy 71 21.7 64 17.8 79 79 NE 5 7 30.03 1017 10 16 N/A

Powered by AerisWeather